sat.trackr.live / text

‹ back to catalog

STARLINK-32354

NORAD 61932 · 2024-207W

PAYLOAD ACTIVE UNKNOWN

§ Identity

Operator
Country
US
Launch date
2024-11-11
Launch site
AFETR
Launch vehicle
Mass (kg)
RCS (m²)

Purposes: comms

External: N2YO · Heavens-Above · Gunter

§ Orbital elements

Epoch: 2026-09-21T08:38:52.640736Z

Period
94.27 min
Inclination
42.9997°
Eccentricity
0.0001279
Mean motion
15.27595908 rev/d
Perigee alt
482.1 km
Apogee alt
483.9 km
Semi-major
6,861.1 km
B*
3.6440e-4
RAAN
260.4740°
Arg perigee
255.3975°
Mean anomaly
104.6735°
Rev number
10,509

§ Raw data

STARLINK-323541 61932U 24207W   26264.36033149  .00009784  00000+0  36440-3 0  99922 61932  42.9997 260.4740 0001279 255.3975 104.6735 15.27595908105093

JSON: /api/v1/satellites/61932 · /tle

For live sub-satellite position, see the globe view (requires WebGL).

§ Visibility from observer

Set your observer location to see the next 7 days of passes ≥ 10°. The values pass through the URL so the page stays shareable.

No JS? Fill the form by hand. The geolocation button needs JavaScript.